GFSFLT1_925_thetae_057.txt.gz
Theta_e
351 350 349 347 345 346 346 347 350 353 354 354 354 357 354 350 355 355 349 348 345 347 353 353 351 354 353 357 356 354 356 354 353
350 350 350 349 346 346 346 347 349 352 355 354 355 354 356 355 350 355 358 348 349 349 349 353 353 354 354 354 356 354 352 355 357
344 349 351 349 347 345 346 346 348 350 355 356 356 356 357 357 355 350 355 358 349 347 352 351 351 355 356 354 354 355 355 353 359
342 345 351 350 348 346 346 345 347 349 352 357 358 359 357 359 360 358 353 357 359 349 345 352 359 358 358 356 353 356 359 357 355
335 342 350 350 349 346 346 345 346 348 351 355 357 358 360 358 360 363 361 355 355 358 351 344 350 358 361 356 354 355 356 358 357
333 340 348 350 350 347 346 346 346 348 349 354 356 358 359 362 360 362 364 362 356 354 356 352 345 348 358 360 357 357 355 352 359
339 337 345 349 350 349 347 347 346 348 348 350 356 358 361 361 363 363 362 364 363 358 356 357 354 353 353 359 360 357 355 355 353
340 341 346 347 349 350 349 348 347 348 349 349 351 359 361 362 363 364 363 363 364 363 358 359 358 357 362 360 361 360 358 356 356
336 340 340 340 343 348 350 351 350 349 349 350 352 353 361 362 364 364 364 364 364 365 364 360 360 363 360 362 363 362 360 359 359
336 338 336 334 339 340 348 351 352 352 352 351 353 355 355 361 363 365 365 365 365 365 365 365 363 361 364 363 363 363 362 362 360
332 333 332 334 331 332 341 354 355 355 355 356 355 355 357 357 362 364 365 365 365 365 365 365 365 365 364 365 365 364 363 363 363
344 344 344 342 342 343 342 342 345 359 356 357 359 359 359 359 362 364 365 365 365 366 365 366 365 365 365 365 366 365 365 365 365
342 344 345 348 349 347 343 345 342 353 360 360 358 358 362 361 362 364 365 366 366 367 366 366 366 366 366 366 366 366 366 366 365
342 341 343 348 351 352 352 347 343 346 346 356 362 362 358 358 363 364 366 365 366 367 368 368 367 367 367 367 367 367 367 367 366
338 339 339 341 346 352 357 355 347 346 352 346 341 349 361 363 361 363 366 367 367 368 368 369 368 368 368 368 368 368 368 367 367
328 335 337 338 342 353 356 359 357 352 348 345 344 352 362 362 362 363 362 367 368 368 369 369 369 368 368 368 367 368 368 368 368
324 325 334 338 336 345 352 355 360 363 354 349 357 356 364 366 364 364 364 362 368 369 369 369 369 369 368 367 368 367 366 367 368
321 323 332 336 336 338 347 352 362 364 364 357 353 354 362 368 367 365 368 364 367 369 369 369 369 368 367 367 365 365 367 366 364
322 319 321 337 338 343 348 351 358 360 363 365 368 361 356 370 369 368 368 360 351 357 363 365 368 368 368 365 363 364 363 364 363
321 323 321 335 336 339 347 352 354 359 360 360 359 366 362 363 369 369 360 349 348 342 347 353 358 360 362 363 359 358 355 356 356

GFSFLT1_925_thetae_060.txt.gz
Theta_e
344 348 345 344 345 345 345 347 349 348 347 349 352 351 351 351 351 351 350 348 348 346 344 346 346 350 352 356 356 355 352 352 353
345 348 347 345 344 346 346 347 349 349 348 348 351 351 352 352 351 351 349 349 348 346 347 345 348 349 353 353 356 356 354 352 353
347 349 348 347 344 346 346 347 348 350 350 349 349 352 351 350 351 352 352 350 348 347 345 346 349 352 351 352 353 355 355 353 354
349 350 349 348 345 345 345 346 348 350 350 350 350 350 353 352 351 349 350 355 355 349 347 348 350 351 354 355 355 354 356 355 353
349 349 349 348 346 345 345 345 346 349 350 351 350 351 351 353 353 353 350 349 354 356 353 347 347 354 358 353 354 356 354 355 354
345 349 349 348 346 345 345 345 345 347 349 352 352 352 352 353 355 355 355 353 350 350 353 352 347 346 349 359 358 356 354 354 355
339 347 348 349 347 345 344 344 344 346 348 351 353 354 355 354 354 357 358 357 355 352 349 354 354 349 345 350 358 358 354 353 355
336 346 348 349 348 345 344 344 344 345 346 349 352 355 355 356 356 355 357 360 359 357 354 352 351 353 352 349 351 355 358 354 354
337 347 349 349 348 346 345 344 344 344 346 348 351 354 355 355 356 358 357 358 360 360 359 357 355 354 354 355 354 354 355 357 357
334 337 344 349 349 347 345 345 345 344 345 346 351 353 354 355 357 358 360 360 360 360 361 360 357 357 356 355 356 357 358 358 358
342 340 340 339 337 339 347 346 346 345 345 347 347 350 355 356 358 359 360 361 361 361 361 362 361 358 358 359 358 357 358 360 360
345 347 345 340 339 341 344 348 349 348 347 347 348 349 349 357 359 361 361 362 362 362 362 362 362 362 361 359 360 360 360 360 361
338 339 344 349 352 353 347 342 350 351 351 350 349 350 351 352 356 360 361 362 362 363 363 363 363 363 363 363 363 362 362 363 363
334 335 337 345 351 354 354 353 344 346 355 355 354 354 353 355 355 356 360 362 362 362 363 363 363 363 363 363 364 364 364 364 364
323 328 334 333 339 348 350 354 360 357 352 350 351 360 358 358 359 358 360 361 362 363 363 364 364 364 364 364 364 364 365 365 364
320 321 334 333 330 335 345 350 359 359 364 359 346 347 352 360 360 361 362 362 362 363 364 364 365 365 365 365 365 366 366 366 366
319 319 322 333 333 333 339 346 350 358 359 364 358 353 351 356 361 362 362 364 364 364 365 365 365 366 366 366 366 366 366 366 367
317 317 319 326 333 331 332 341 347 351 358 357 360 363 360 356 361 364 363 362 365 365 366 366 366 366 366 366 366 366 367 367 366
317 318 319 320 333 334 333 335 342 343 349 357 355 355 358 361 362 362 363 362 356 361 364 366 367 367 367 367 367 367 366 365 365
318 317 318 319 323 335 335 335 336 336 342 344 352 351 351 354 358 362 363 355 348 343 349 358 363 366 367 367 367 365 364 363 363

GFSFLT1_925_thetae_063.txt.gz
Theta_e
344 344 345 346 346 347 347 348 348 346 346 347 348 347 348 348 347 347 346 346 346 348 347 347 344 345 351 353 353 354 352 353 350
342 343 344 345 345 345 347 348 348 346 347 347 348 348 348 349 348 348 348 347 347 345 346 346 346 345 345 348 351 354 354 354 350
342 341 343 345 344 345 345 346 347 347 346 347 349 349 349 349 348 348 348 348 347 346 347 347 345 343 346 347 349 352 356 355 354
342 342 342 345 343 344 345 345 346 347 346 346 347 349 349 349 349 349 349 349 348 348 346 346 345 345 346 350 351 352 353 355 355
336 342 341 344 343 343 344 344 346 347 347 346 346 348 349 349 349 350 349 350 349 348 347 346 346 345 345 348 352 353 353 353 354
341 341 343 344 344 344 344 345 345 346 348 347 347 346 348 350 349 348 348 349 351 351 350 348 348 347 349 351 351 352 352 353 354
326 343 343 346 346 345 343 345 344 346 347 348 348 347 348 349 350 350 350 349 348 348 349 350 350 350 349 347 348 353 356 354 356
325 330 345 346 347 346 343 344 344 345 346 348 349 348 349 349 349 350 351 351 350 349 349 348 348 347 349 349 347 346 349 357 356
327 337 346 346 346 345 344 344 344 344 346 347 349 350 349 350 350 350 352 353 353 352 351 350 350 350 347 348 349 348 344 345 354
334 340 345 346 346 345 343 343 344 343 344 346 349 350 351 351 352 352 352 353 356 356 355 354 352 352 351 350 349 348 348 348 351
347 341 341 344 346 345 344 344 344 343 343 345 347 350 351 352 353 354 354 353 354 356 357 357 355 354 354 353 353 352 351 350 351
339 346 349 345 339 341 343 343 344 343 342 344 347 348 351 352 353 353 354 357 356 356 357 358 358 357 356 355 356 355 353 353 355
333 333 341 351 351 342 343 343 344 343 343 344 344 347 350 351 352 354 355 355 357 357 358 358 359 360 359 358 357 357 357 357 356
325 333 330 336 347 350 353 345 345 344 343 344 345 346 346 349 353 354 356 357 358 359 359 360 360 361 360 361 361 361 360 359 359
318 323 332 330 335 342 348 358 358 355 351 348 347 348 348 348 349 352 356 357 359 360 360 361 361 361 361 361 362 362 362 362 362
317 317 322 331 328 331 340 349 358 358 359 349 348 356 356 354 351 352 352 356 358 359 360 360 361 361 361 361 362 362 362 362 362
315 316 317 329 330 328 331 338 346 355 357 357 359 358 356 357 358 358 356 356 357 358 360 360 360 361 362 362 362 363 363 364 364
314 316 317 318 327 331 332 333 334 337 347 352 353 350 352 356 359 359 359 360 361 360 360 361 361 361 362 363 363 364 364 365 365
315 314 315 316 318 327 333 334 332 334 338 341 343 348 349 348 350 354 360 360 358 360 362 363 363 364 363 364 364 364 365 365 366
315 314 315 316 317 324 329 331 330 330 335 338 340 344 347 348 349 350 353 358 355 346 349 358 361 364 365 365 365 366 366 366 365

GFSFLT1_925_thetae_069.txt.gz
Theta_e
351 353 352 352 351 349 349 349 349 348 348 347 345 345 345 344 344 347 347 347 347 347 346 346 347 344 343 344 346 350 352 354 354
347 349 353 353 351 350 349 349 349 348 349 348 347 346 345 345 344 345 347 346 345 347 346 345 340 340 343 343 343 345 351 354 354
342 346 348 351 351 350 350 349 349 348 348 349 348 347 347 347 347 346 346 347 346 346 345 344 345 339 341 344 344 344 347 353 355
343 346 347 348 352 351 350 349 349 349 348 348 349 348 348 348 348 348 348 348 347 346 344 344 344 342 342 345 346 346 347 348 353
339 344 346 347 350 351 350 350 349 349 348 348 348 348 348 348 348 348 349 348 348 347 346 344 345 345 342 342 344 346 349 352 353
334 343 345 347 347 351 352 352 351 350 349 348 348 348 349 349 349 349 349 349 348 348 347 345 345 345 345 342 349 347 348 351 353
329 331 342 345 346 349 350 350 352 351 350 349 348 348 349 350 350 349 349 349 349 349 347 346 345 345 345 344 346 348 348 351 352
345 344 338 340 345 348 350 350 350 351 351 350 349 349 350 350 350 350 350 350 350 350 349 347 346 346 346 346 349 347 348 350 352
342 346 347 343 343 347 351 349 349 350 351 350 349 350 350 351 351 351 351 350 350 351 350 349 348 349 348 349 349 347 346 345 350
340 342 343 345 349 346 351 348 348 350 350 351 350 350 350 351 352 352 351 351 351 351 352 353 352 351 351 351 350 346 345 345 346
334 338 342 342 344 348 346 346 346 348 349 350 350 350 350 350 352 352 352 351 351 351 351 351 351 352 352 352 351 347 345 345 346
325 332 337 340 346 349 340 346 347 348 350 351 351 351 351 350 350 351 352 352 352 352 352 352 351 351 351 351 350 348 346 347 348
320 328 335 340 351 346 342 347 346 349 351 351 352 351 351 351 351 351 351 352 352 352 353 353 353 353 353 352 352 349 347 348 350
319 322 334 340 349 351 348 347 348 350 351 352 351 351 351 352 351 351 352 352 353 354 354 355 356 356 356 356 355 354 351 351 351
319 320 327 335 340 345 351 348 348 350 351 350 350 351 352 353 353 352 353 354 354 354 355 356 356 357 358 358 359 358 356 354 355
320 319 319 326 332 337 341 348 351 349 351 348 350 351 352 353 354 354 354 355 356 357 357 356 357 358 358 358 359 361 360 358 357
322 320 319 321 322 326 330 337 342 347 352 352 350 350 351 352 353 354 354 355 355 355 356 357 357 358 359 360 360 361 362 361 359
318 321 320 321 322 322 323 325 331 336 343 352 356 355 353 350 351 352 355 354 355 356 356 357 358 359 360 361 362 362 362 363 362
316 317 320 321 321 321 321 321 322 327 332 339 346 349 352 353 359 358 355 354 353 354 355 357 357 358 359 361 360 361 360 359 360
315 317 319 319 321 321 320 320 320 323 327 330 335 340 345 347 350 354 358 359 357 357 354 354 355 356 357 358 359 360 360 360 361

GFSFLT1_925_thetae_072.txt.gz
Theta_e
351 353 353 354 353 351 350 350 349 349 351 353 351 351 350 349 349 349 351 351 349 349 347 346 347 352 353 354 353 355 356 355 353
347 351 352 353 353 352 351 350 351 351 352 354 353 350 352 352 351 350 348 349 351 350 350 348 349 350 351 351 352 354 356 355 356
342 344 349 351 352 352 351 351 351 351 352 354 353 351 352 352 352 352 350 350 352 352 350 351 350 350 349 349 352 353 355 353 355
338 339 342 348 351 351 352 352 352 352 352 353 353 352 352 352 351 352 352 351 352 354 354 353 354 351 351 348 351 353 355 355 353
337 338 342 345 350 352 352 352 352 352 352 352 353 353 354 353 353 352 352 353 352 353 354 355 355 354 353 351 350 353 355 355 352
335 336 339 345 347 352 353 352 353 352 352 352 351 352 353 353 353 353 353 353 353 353 354 355 355 355 354 353 350 350 353 355 355
339 337 337 343 347 349 353 353 355 354 352 352 350 350 351 353 355 354 353 354 354 354 354 355 355 355 355 354 352 349 349 350 353
341 343 343 341 347 348 351 353 355 355 353 353 351 351 351 354 355 355 355 355 355 355 355 355 356 356 355 354 353 349 349 349 349
342 344 345 346 346 343 347 350 354 356 356 354 354 354 354 354 357 357 357 357 356 356 356 356 356 356 356 355 352 348 346 347 348
342 343 344 347 347 349 345 346 350 355 357 355 355 357 356 356 357 358 358 357 357 357 357 357 357 357 356 355 355 352 349 347 347
336 338 341 345 347 346 347 346 346 351 353 356 357 358 358 357 358 359 358 358 358 359 358 358 358 357 357 356 356 354 352 349 349
332 332 334 341 344 346 348 349 345 348 351 354 356 358 358 358 358 359 359 359 359 358 358 358 358 358 358 358 357 355 353 351 350
326 327 329 340 345 349 353 352 348 347 352 355 358 358 358 358 358 359 359 359 359 358 358 357 356 356 357 357 358 357 354 352 351
321 321 322 335 346 351 356 349 347 352 353 356 357 356 355 356 357 359 359 359 359 359 358 357 358 357 357 357 357 357 356 354 352
321 322 321 325 342 349 355 350 348 357 357 354 356 355 355 357 357 356 357 358 359 359 359 359 360 359 359 358 360 358 358 356 354
320 322 321 322 330 344 350 356 351 354 355 355 355 356 357 357 357 357 356 358 359 359 359 359 360 360 360 359 359 361 361 359 357
320 320 323 323 323 328 335 344 352 355 356 355 356 357 357 358 359 358 357 358 359 359 359 359 358 359 358 359 359 360 361 362 360
319 320 322 323 324 323 324 327 335 344 355 354 354 356 357 357 358 358 359 358 358 358 358 358 359 358 359 359 361 361 362 363 365
317 319 321 323 325 324 324 325 327 330 337 352 358 357 355 355 354 356 356 357 357 355 354 357 357 359 360 361 361 362 362 362 362
316 319 320 322 324 324 325 326 325 324 326 332 345 352 356 358 358 358 356 358 359 361 355 355 356 357 357 359 361 361 360 360 360

GFSFLT1_925_thetae_075.txt.gz
Theta_e
353 354 353 353 353 352 351 351 352 351 352 355 354 351 349 348 350 347 346 352 348 347 346 346 352 356 354 354 356 354 355 356 354
353 354 354 354 353 352 351 352 354 354 353 355 356 352 351 351 350 347 347 350 351 352 348 346 348 349 354 354 353 354 355 354 355
348 352 352 352 354 353 352 351 352 354 354 357 357 353 354 353 352 351 351 352 355 352 350 350 351 352 351 353 352 353 354 353 355
344 345 349 350 351 352 353 352 351 353 355 357 358 356 354 353 354 352 351 353 354 353 354 353 353 353 353 351 351 354 355 354 352
340 341 344 346 349 351 352 353 353 353 353 353 356 356 355 355 355 354 355 353 352 354 355 356 356 356 354 353 350 352 355 356 351
338 339 340 341 345 351 352 353 354 354 353 353 354 356 356 357 357 357 356 356 354 353 355 357 357 358 358 356 353 351 354 356 356
343 342 339 342 345 349 352 354 357 357 354 353 353 354 354 357 359 358 357 356 356 355 356 358 358 359 359 358 356 353 351 353 356
342 342 344 341 344 347 351 354 359 358 355 355 354 355 354 357 359 359 358 357 357 358 358 358 359 359 359 359 357 354 352 350 352
343 343 345 346 347 347 349 352 355 359 358 357 356 357 355 355 359 360 360 359 358 359 359 359 360 360 360 359 356 351 350 350 351
341 342 343 346 348 349 348 347 351 356 359 357 357 359 357 356 359 361 361 360 360 361 361 360 361 361 361 360 360 352 350 348 350
337 339 339 340 343 347 347 346 346 350 355 359 359 359 361 358 360 362 362 362 363 363 363 362 362 363 362 361 360 357 353 351 349
332 334 335 336 338 343 347 349 349 348 353 358 361 362 362 361 361 363 364 364 364 364 364 364 364 364 363 363 361 358 355 354 353
329 330 331 333 336 345 348 350 353 351 350 357 362 361 362 363 362 363 365 365 364 364 364 364 361 362 363 363 363 361 358 355 354
326 327 327 331 334 344 351 354 358 357 353 356 359 360 362 364 363 364 365 365 365 365 364 361 363 362 363 364 362 363 362 358 356
325 326 325 329 330 339 343 356 362 361 358 356 358 360 362 363 364 363 363 365 366 365 365 365 365 364 364 360 362 361 361 360 359
324 322 322 325 327 332 331 339 356 355 359 358 359 361 362 363 363 363 362 365 366 365 365 362 362 362 361 357 356 361 360 358 358
323 320 320 323 325 329 329 331 333 341 346 357 359 362 363 363 363 363 362 363 364 362 361 362 359 359 359 357 355 354 360 361 360
320 319 320 323 325 325 327 327 327 328 331 344 359 360 360 361 361 361 363 361 360 361 359 359 359 355 356 358 359 359 358 361 363
318 318 321 322 326 325 325 325 323 325 327 329 346 358 360 360 360 362 361 360 358 358 358 358 357 357 357 360 358 358 360 360 362
316 318 319 323 325 323 324 325 323 323 324 327 330 341 352 361 360 361 360 360 360 360 356 356 357 357 357 357 358 359 360 362 362